Time,TemperatureF,DewpointF,PressureIn,WindDirection,WindDirectionDegrees,WindSpeedMPH,WindSpeedGustMPH,Humidity,HourlyPrecipIn,Conditions,Clouds,dailyrainin,SoftwareType,DateUTC
2013-05-12 00:13:00,63.0,52.0,29.73,NW,312,2.0,9.0,68,0.00,,,0.00,weatherlink.com 1.10,2013-05-12 04:13:00,
2013-05-12 00:28:00,62.7,52.0,29.74,NW,318,3.0,9.0,69,0.00,,,0.00,weatherlink.com 1.10,2013-05-12 04:28:00,
2013-05-12 00:43:00,62.2,52.0,29.73,NW,318,4.0,10.0,70,0.00,,,0.00,weatherlink.com 1.10,2013-05-12 04:43:00,
2013-05-12 00:58:00,61.8,52.0,29.74,NW,323,4.0,8.0,70,0.00,,,0.00,weatherlink.com 1.10,2013-05-12 04:58:00,
2013-05-12 01:13:00,61.6,52.0,29.73,North,352,2.0,7.0,70,0.00,,,0.00,weatherlink.com 1.10,2013-05-12 05:13:00,
2013-05-12 01:28:00,61.4,51.0,29.72,WNW,293,7.0,11.0,68,0.00,,,0.00,weatherlink.com 1.10,2013-05-12 05:28:00,
2013-05-12 01:43:00,61.1,50.0,29.71,NW,323,0.0,9.0,67,0.00,,,0.00,weatherlink.com 1.10,2013-05-12 05:43:00,
2013-05-12 01:58:00,60.8,49.0,29.71,NNW,346,3.0,10.0,66,0.00,,,0.00,weatherlink.com 1.10,2013-05-12 05:58:00,
2013-05-12 02:13:00,60.8,48.0,29.72,NW,318,7.0,12.0,64,0.00,,,0.00,weatherlink.com 1.10,2013-05-12 06:13:00,
2013-05-12 02:28:00,60.8,48.0,29.72,NW,304,6.0,14.0,63,0.00,,,0.00,weatherlink.com 1.10,2013-05-12 06:28:00,
2013-05-12 02:43:00,60.2,48.0,29.72,NW,318,3.0,13.0,64,0.00,,,0.00,weatherlink.com 1.10,2013-05-12 06:43:00,
2013-05-12 02:58:00,59.6,48.0,29.73,NW,321,3.0,12.0,65,0.00,,,0.00,weatherlink.com 1.10,2013-05-12 06:58:00,
2013-05-12 03:13:00,59.1,46.0,29.73,NW,316,7.0,12.0,63,0.00,,,0.00,weatherlink.com 1.10,2013-05-12 07:13:00,
2013-05-12 03:28:00,58.5,46.0,29.73,NW,314,3.0,8.0,63,0.00,,,0.00,weatherlink.com 1.10,2013-05-12 07:28:00,
2013-05-12 03:43:00,57.9,46.0,29.74,NW,316,2.0,10.0,65,0.00,,,0.00,weatherlink.com 1.10,2013-05-12 07:43:00,
2013-05-12 03:58:00,57.1,46.0,29.74,NW,320,1.0,4.0,66,0.00,,,0.00,weatherlink.com 1.10,2013-05-12 07:58:00,
2013-05-12 04:13:00,55.7,46.0,29.72,WNW,303,2.0,5.0,69,0.00,,,0.00,weatherlink.com 1.10,2013-05-12 08:13:00,
2013-05-12 04:28:00,55.2,46.0,29.73,NNW,328,0.0,4.0,70,0.00,,,0.00,weatherlink.com 1.10,2013-05-12 08:28:00,
2013-05-12 04:43:00,54.4,46.0,29.73,WNW,287,0.0,5.0,73,0.00,,,0.00,weatherlink.com 1.10,2013-05-12 08:43:00,
2013-05-12 04:58:00,53.8,46.0,29.72,NW,316,0.0,5.0,74,0.00,,,0.00,weatherlink.com 1.10,2013-05-12 08:58:00,
2013-05-12 05:14:00,52.9,46.0,29.73,NW,316,0.0,0.0,77,0.00,,,0.00,weatherlink.com 1.10,2013-05-12 09:14:00,
2013-05-12 05:29:00,51.9,46.0,29.73,NW,316,0.0,0.0,81,0.00,,,0.00,weatherlink.com 1.10,2013-05-12 09:29:00,
2013-05-12 05:44:00,51.2,47.0,29.74,NW,316,0.0,0.0,84,0.00,,,0.00,weatherlink.com 1.10,2013-05-12 09:44:00,
2013-05-12 05:59:00,51.4,47.0,29.74,NW,316,0.0,0.0,86,0.00,,,0.00,weatherlink.com 1.10,2013-05-12 09:59:00,
2013-05-12 06:14:00,52.2,47.0,29.75,WNW,299,5.0,9.0,83,0.00,,,0.00,weatherlink.com 1.10,2013-05-12 10:14:00,
2013-05-12 06:29:00,55.9,43.0,29.75,WNW,297,8.0,18.0,63,0.00,,,0.00,weatherlink.com 1.10,2013-05-12 10:29:00,
2013-05-12 06:44:00,55.5,42.0,29.76,NW,316,10.0,17.0,60,0.00,,,0.00,weatherlink.com 1.10,2013-05-12 10:44:00,
2013-05-12 06:59:00,54.9,41.0,29.77,NW,323,2.0,12.0,59,0.00,,,0.00,weatherlink.com 1.10,2013-05-12 10:59:00,
2013-05-12 07:14:00,54.6,39.0,29.78,North,355,7.0,12.0,57,0.00,,,0.00,weatherlink.com 1.10,2013-05-12 11:14:00,
2013-05-12 07:29:00,53.9,39.0,29.79,NW,311,6.0,15.0,58,0.00,,,0.00,weatherlink.com 1.10,2013-05-12 11:29:00,
2013-05-12 07:44:00,53.5,38.0,29.79,NW,324,3.0,12.0,57,0.00,,,0.00,weatherlink.com 1.10,2013-05-12 11:44:00,
2013-05-12 07:59:00,53.1,40.0,29.80,NW,312,5.0,12.0,61,0.00,,,0.00,weatherlink.com 1.10,2013-05-12 11:59:00,
2013-05-12 08:14:00,53.3,40.0,29.80,NW,316,8.0,13.0,61,0.00,,,0.00,weatherlink.com 1.10,2013-05-12 12:14:00,
2013-05-12 08:29:00,54.5,38.0,29.80,North,351,7.0,15.0,54,0.00,,,0.00,weatherlink.com 1.10,2013-05-12 12:29:00,
2013-05-12 08:44:00,54.9,38.0,29.80,NW,318,7.0,13.0,54,0.00,,,0.00,weatherlink.com 1.10,2013-05-12 12:44:00,
2013-05-12 09:00:00,54.5,36.0,29.81,NW,316,10.0,19.0,51,0.00,,,0.00,weatherlink.com 1.10,2013-05-12 13:00:00,
2013-05-12 09:15:00,54.7,38.0,29.81,WNW,302,3.0,19.0,53,0.00,,,0.00,weatherlink.com 1.10,2013-05-12 13:15:00,
2013-05-12 09:29:00,54.6,39.0,29.81,SW,223,11.0,17.0,55,0.00,,,0.00,weatherlink.com 1.10,2013-05-12 13:29:00,
2013-05-12 09:44:00,55.1,37.0,29.82,NNW,331,16.0,16.0,51,0.00,,,0.00,weatherlink.com 1.10,2013-05-12 13:44:00,
2013-05-12 09:59:00,55.9,37.0,29.82,WNW,299,6.0,19.0,50,0.00,,,0.00,weatherlink.com 1.10,2013-05-12 13:59:00,
2013-05-12 10:15:00,55.1,39.0,29.82,NNW,341,9.0,15.0,54,0.00,,,0.00,weatherlink.com 1.10,2013-05-12 14:15:00,
2013-05-12 10:29:00,55.2,38.0,29.83,NW,315,5.0,17.0,52,0.00,,,0.00,weatherlink.com 1.10,2013-05-12 14:29:00,
2013-05-12 10:44:00,55.4,36.0,29.83,NW,305,13.0,19.0,48,0.00,,,0.00,weatherlink.com 1.10,2013-05-12 14:44:00,
2013-05-12 10:59:00,55.8,33.0,29.83,NNW,345,6.0,16.0,43,0.00,,,0.00,weatherlink.com 1.10,2013-05-12 14:59:00,
2013-05-12 11:14:00,56.7,35.0,29.83,NW,306,6.0,19.0,44,0.00,,,0.00,weatherlink.com 1.10,2013-05-12 15:14:00,
2013-05-12 11:29:00,57.0,35.0,29.83,NW,304,3.0,16.0,44,0.00,,,0.00,weatherlink.com 1.10,2013-05-12 15:29:00,
2013-05-12 11:44:00,56.5,33.0,29.84,NW,306,10.0,18.0,42,0.00,,,0.00,weatherlink.com 1.10,2013-05-12 15:44:00,
2013-05-12 11:59:00,56.7,31.0,29.83,West,279,9.0,14.0,38,0.00,,,0.00,weatherlink.com 1.10,2013-05-12 15:59:00,
2013-05-12 12:16:00,58.0,30.0,29.83,NW,321,13.0,15.0,34,0.00,,,0.00,weatherlink.com 1.10,2013-05-12 16:16:00,
2013-05-12 12:31:00,58.3,28.0,29.83,NNW,340,6.0,11.0,32,0.00,,,0.00,weatherlink.com 1.10,2013-05-12 16:31:00,
2013-05-12 12:45:00,58.6,29.0,29.83,NNW,331,6.0,16.0,32,0.00,,,0.00,weatherlink.com 1.10,2013-05-12 16:45:00,
2013-05-12 13:00:00,59.8,30.0,29.83,North,3,1.0,18.0,32,0.00,,,0.00,weatherlink.com 1.10,2013-05-12 17:00:00,
2013-05-12 13:15:00,58.7,32.0,29.83,WNW,295,3.0,15.0,36,0.00,,,0.00,weatherlink.com 1.10,2013-05-12 17:15:00,
2013-05-12 13:30:00,59.4,29.0,29.83,NNW,336,5.0,19.0,32,0.00,,,0.00,weatherlink.com 1.10,2013-05-12 17:30:00,
2013-05-12 13:45:00,59.3,32.0,29.83,NW,320,12.0,16.0,36,0.00,,,0.00,weatherlink.com 1.10,2013-05-12 17:45:00,
2013-05-12 14:01:00,60.0,31.0,29.83,WNW,302,12.0,20.0,34,0.00,,,0.00,weatherlink.com 1.10,2013-05-12 18:01:00,
2013-05-12 14:15:00,60.2,32.0,29.84,NE,42,12.0,19.0,34,0.00,,,0.00,weatherlink.com 1.10,2013-05-12 18:15:00,
2013-05-12 14:30:00,60.3,30.0,29.84,NW,310,8.0,19.0,32,0.00,,,0.00,weatherlink.com 1.10,2013-05-12 18:30:00,
2013-05-12 14:45:00,59.9,30.0,29.84,NW,307,9.0,21.0,32,0.00,,,0.00,weatherlink.com 1.10,2013-05-12 18:45:00,
2013-05-12 15:00:00,59.7,30.0,29.84,NW,324,4.0,20.0,32,0.00,,,0.00,weatherlink.com 1.10,2013-05-12 19:00:00,
2013-05-12 15:15:00,60.9,31.0,29.84,WNW,294,13.0,17.0,32,0.00,,,0.00,weatherlink.com 1.10,2013-05-12 19:15:00,
2013-05-12 15:30:00,60.4,32.0,29.85,NW,306,10.0,21.0,34,0.00,,,0.00,weatherlink.com 1.10,2013-05-12 19:30:00,
2013-05-12 15:45:00,60.5,31.0,29.85,WNW,289,8.0,21.0,33,0.00,,,0.00,weatherlink.com 1.10,2013-05-12 19:45:00,
2013-05-12 16:00:00,61.0,32.0,29.85,WNW,299,5.0,19.0,33,0.00,,,0.00,weatherlink.com 1.10,2013-05-12 20:00:00,
2013-05-12 16:15:00,60.6,33.0,29.85,NW,304,6.0,16.0,35,0.00,,,0.00,weatherlink.com 1.10,2013-05-12 20:15:00,
2013-05-12 16:30:00,61.1,31.0,29.85,NNW,345,7.0,22.0,32,0.00,,,0.00,weatherlink.com 1.10,2013-05-12 20:30:00,
2013-05-12 16:45:00,60.1,30.0,29.86,NW,316,5.0,18.0,32,0.00,,,0.00,weatherlink.com 1.10,2013-05-12 20:45:00,
2013-05-12 17:00:00,58.7,31.0,29.86,WNW,290,10.0,17.0,35,0.00,,,0.00,weatherlink.com 1.10,2013-05-12 21:00:00,
2013-05-12 17:15:00,57.5,31.0,29.86,WSW,250,3.0,15.0,36,0.00,,,0.00,weatherlink.com 1.10,2013-05-12 21:15:00,
2013-05-12 17:30:00,57.6,30.0,29.86,NNW,333,4.0,21.0,35,0.00,,,0.00,weatherlink.com 1.10,2013-05-12 21:30:00,
2013-05-12 17:45:00,57.6,31.0,29.87,WNW,303,8.0,16.0,36,0.00,,,0.00,weatherlink.com 1.10,2013-05-12 21:45:00,
2013-05-12 18:00:00,58.0,30.0,29.87,NW,324,4.0,17.0,35,0.00,,,0.00,weatherlink.com 1.10,2013-05-12 22:00:00,
2013-05-12 18:15:00,57.8,30.0,29.87,NW,323,10.0,13.0,35,0.00,,,0.00,weatherlink.com 1.10,2013-05-12 22:15:00,
2013-05-12 18:30:00,57.3,29.0,29.88,WNW,300,9.0,16.0,34,0.00,,,0.00,weatherlink.com 1.10,2013-05-12 22:30:00,
2013-05-12 18:45:00,58.4,31.0,29.88,WNW,285,9.0,10.0,35,0.00,,,0.00,weatherlink.com 1.10,2013-05-12 22:45:00,
2013-05-12 19:00:00,57.2,28.0,29.89,WNW,296,12.0,17.0,33,0.00,,,0.00,weatherlink.com 1.10,2013-05-12 23:00:00,
2013-05-12 19:15:00,56.9,28.0,29.89,WNW,302,4.0,15.0,33,0.00,,,0.00,weatherlink.com 1.10,2013-05-12 23:15:00,
2013-05-12 19:30:00,56.0,27.0,29.90,WNW,298,10.0,15.0,33,0.00,,,0.00,weatherlink.com 1.10,2013-05-12 23:30:00,
2013-05-12 19:45:00,55.4,27.0,29.91,NNW,332,9.0,14.0,34,0.00,,,0.00,weatherlink.com 1.10,2013-05-12 23:45:00,
2013-05-12 20:00:00,55.0,26.0,29.91,NW,313,9.0,13.0,33,0.00,,,0.00,weatherlink.com 1.10,2013-05-13 00:00:00,
2013-05-12 20:15:00,54.5,26.0,29.92,WNW,293,5.0,15.0,34,0.00,,,0.00,weatherlink.com 1.10,2013-05-13 00:15:00,
2013-05-12 20:30:00,53.9,26.0,29.92,NW,323,5.0,11.0,34,0.00,,,0.00,weatherlink.com 1.10,2013-05-13 00:30:00,
2013-05-12 20:45:00,53.2,28.0,29.93,NW,321,2.0,7.0,38,0.00,,,0.00,weatherlink.com 1.10,2013-05-13 00:45:00,
2013-05-12 21:00:00,51.8,28.0,29.94,NW,311,0.0,2.0,40,0.00,,,0.00,weatherlink.com 1.10,2013-05-13 01:00:00,
2013-05-12 21:15:00,49.9,29.0,29.95,NW,313,2.0,3.0,45,0.00,,,0.00,weatherlink.com 1.10,2013-05-13 01:15:00,
2013-05-12 21:30:00,50.0,28.0,29.95,WNW,291,0.0,5.0,43,0.00,,,0.00,weatherlink.com 1.10,2013-05-13 01:30:00,
2013-05-12 21:45:00,49.3,30.0,29.96,NW,317,1.0,3.0,47,0.00,,,0.00,weatherlink.com 1.10,2013-05-13 01:45:00,
2013-05-12 22:01:00,47.8,33.0,29.97,NW,317,0.0,1.0,57,0.00,,,0.00,weatherlink.com 1.10,2013-05-13 02:01:00,
2013-05-12 22:16:00,46.2,33.0,29.97,NW,317,0.0,0.0,61,0.00,,,0.00,weatherlink.com 1.10,2013-05-13 02:16:00,
2013-05-12 22:31:00,45.0,34.0,29.98,NW,317,0.0,0.0,65,0.00,,,0.00,weatherlink.com 1.10,2013-05-13 02:31:00,
2013-05-12 22:46:00,43.9,34.0,29.98,NW,317,0.0,0.0,69,0.00,,,0.00,weatherlink.com 1.10,2013-05-13 02:46:00,
2013-05-12 23:01:00,42.9,34.0,29.98,NW,317,0.0,0.0,71,0.00,,,0.00,weatherlink.com 1.10,2013-05-13 03:01:00,
2013-05-12 23:16:00,42.0,34.0,29.98,NW,317,0.0,2.0,74,0.00,,,0.00,weatherlink.com 1.10,2013-05-13 03:16:00,
2013-05-12 23:31:00,41.4,34.0,29.98,NW,317,1.0,2.0,75,0.00,,,0.00,weatherlink.com 1.10,2013-05-13 03:31:00,
2013-05-12 23:46:00,41.4,34.0,29.98,NW,316,0.0,3.0,76,0.00,,,0.00,weatherlink.com 1.10,2013-05-13 03:46:00,